Location: Bryngwyn
(53.0667°N, 4.2500°W)
Time: 01:09:08
(UTC+00:00)

Daily predictions for brighter satellites

Satellite Brightness Start Highest point End
(mag) Time Altitude Azimuth Time Altitude Azimuth Time Altitude Azimuth
Cosmos 2082 Rocket 4.1 00:02:37 10° W 00:07:30 28° NW 00:12:24 10° NNE
Cosmos 2333 4.2 00:02:00 10° NNW 00:07:50 86° WSW 00:10:14 38° SSE
SL-27 R/B 3.6 00:07:20 31° W 00:08:07 36° WNW 00:11:14 10° N
Cosmos 2219 Rocket 2.3 00:02:38 10° NNW 00:08:21 73° NE 00:11:13 30° SE
EO 1 Del DPAF 4.1 00:05:48 10° N 00:09:23 43° WNW 00:10:23 34° WSW
Cosmos 836 Rocket 4.4 00:04:24 10° NNW 00:09:39 84° ENE 00:11:32 41° SSE
Lacrosse 4 Rocket 2.4 00:13:01 32° ESE 00:13:01 32° ESE 00:16:39 10° NE
Cosmos 2233 Rocket 4.0 00:10:46 36° SSW 00:13:35 87° W 00:19:59 10° N
Cosmos 1782 Rocket 4.5 00:12:54 32° ESE 00:13:42 35° E 00:17:40 10° NNE
FALCON 9 DEB 4.3 00:15:49 33° E 00:15:49 33° E 00:17:54 10° E
Cosmos 2322 Rocket 3.4 00:11:27 10° NW 00:16:12 28° WSW 00:17:43 25° SW
SL-16 R/B 4.4 00:14:37 10° NNW 00:19:11 24° NNE 00:23:43 10° E
Landsat 4 4.5 00:16:20 10° NNE 00:19:55 38° E 00:20:07 38° ESE
Cosmos 1536 3.6 00:19:16 35° WSW 00:20:16 43° WNW 00:24:06 10° N
Cosmos 968 Rocket 3.9 00:19:13 40° SE 00:20:23 47° ESE 00:25:17 10° NE
Cosmos 1908 Rocket 3.6 00:21:10 54° SSE 00:22:01 71° E 00:26:24 10° NNE
COSMOS 2428 2.7 00:20:43 10° NNW 00:26:30 85° ENE 00:29:12 33° SE
Nadezhda 4 Rocket 4.4 00:25:39 10° N 00:31:54 57° ENE 00:35:18 27° SE
Cosmos 2360 Rocket 3.0 00:26:53 10° NW 00:32:03 36° WSW 00:33:24 32° SW
CENTAUR R/B 2.9 00:27:24 13° WSW 00:33:08 70° NW 00:40:40 10° NE
Cosmos 1378 Rocket 4.2 00:29:22 10° NNW 00:33:37 44° W 00:34:29 39° SW
SL-16 R/B 3.8 00:28:43 10° ESE 00:34:19 36° ENE 00:39:56 10° N
CZ-2D R/B 4.3 00:31:43 10° NE 00:35:08 16° E 00:38:05 11° ESE
YAOGAN 11 4.3 00:37:44 48° SSW 00:38:45 62° WSW 00:43:19 10° NNW
USA 267 3.6 00:34:21 10° E 00:40:49 65° N 00:47:18 10° WNW
Cosmos 1743 2.9 00:41:15 52° WSW 00:41:50 60° WNW 00:45:43 10° N
Cosmos 1271 Rocket 3.3 00:38:25 10° NNW 00:41:59 41° W 00:42:07 41° WSW
Okean 2 Rocket 4.4 00:41:46 25° ESE 00:43:05 30° E 00:47:01 10° NNE
Meteor 2-9 Rocket 4.4 00:41:29 38° SSE 00:43:30 62° E 00:49:07 10° NNE
Cosmos 1975 Rocket 3.0 00:40:00 10° N 00:44:31 89° W 00:45:36 52° S
Cosmos 1980 4.2 00:39:52 10° NNW 00:45:29 58° NE 00:49:51 17° SE
Cosmos 1544 2.9 00:45:29 77° SSW 00:45:44 88° W 00:49:25 10° N
Cosmos 1242 Rocket 4.4 00:43:21 10° NW 00:46:00 20° W 00:46:00 20° W
Cosmos 1975 2.7 00:45:31 62° SSE 00:46:06 76° E 00:50:08 10° NNE
Cosmos 2333 Rocket 2.3 00:40:31 10° NW 00:46:13 63° WSW 00:48:11 40° S
PSLV R/B 3.8 00:42:34 10° NNE 00:47:11 69° ESE 00:48:26 47° SSE
Cosmos 2297 Rocket 4.1 00:45:36 14° SE 00:47:42 17° E 00:51:15 10° ENE
NOSS 5 (C) 4.4 00:47:27 70° W 00:47:45 78° NW 00:50:53 10° NE
Helios 1B rocket 2.9 00:44:09 10° NNE 00:48:08 47° E 00:48:49 42° SE
COSMOS 2487 2.6 00:48:08 59° W 00:48:21 61° WNW 00:51:47 10° NNE
Sich 1 Rocket 4.0 00:48:43 40° SE 00:49:46 50° E 00:54:02 10° NNE
Meteor 1-29 4.2 00:48:54 10° NNE 00:52:00 30° E 00:52:12 30° ESE
Cosmos 44 Rocket 3.2 00:47:59 10° NW 00:52:58 82° SW 00:55:08 35° SE
Cosmos 783 Rocket 4.4 00:48:02 10° NNW 00:53:18 89° WSW 00:55:27 37° SSE
Cosmos 2237 Rocket 2.6 00:49:55 10° NNW 00:55:35 63° NE 00:59:51 18° SE
Cosmos 1503 Rocket 4.2 00:56:39 41° S 00:58:25 65° ESE 01:03:46 10° NNE
NOSS 3-2 (C) 4.2 00:52:42 10° WSW 00:58:38 54° NNW 01:05:34 10° NE
Cosmos 1300 Rocket 4.5 00:57:53 31° SE 00:59:05 38° E 01:03:05 10° NNE
Cosmos 2084 Rocket 3.9 00:57:25 28° WSW 00:59:31 58° NW 01:03:50 10° NE
CZ-4 R/B 3.9 00:59:05 10° NNE 01:04:05 86° ESE 01:05:48 43° SSW
Cosmos 1486 Rocket 4.1 01:03:27 37° SW 01:05:33 73° WNW 01:10:47 10° NNE
Helios 1A 4.2 01:07:52 26° WSW 01:08:18 27° W 01:11:55 10° NW
Spot 1 4.5 01:06:48 31° SE 01:08:33 54° ENE 01:12:33 10° N
Lacrosse 5 4.1 01:07:53 10° W 01:08:19 11° WSW 01:08:19 11° WSW
Cosmos 2151 Rocket 4.4 01:12:29 31° SE 01:13:59 41° E 01:18:08 10° NNE
Cosmos 1842 4.0 01:10:41 10° NNW 01:14:21 37° W 01:14:42 37° WSW
In-Cosmos 22 4.3 01:10:33 10° N 01:16:13 72° ENE 01:19:15 28° SSE
Cosmos 1707 2.6 01:12:21 10° NNW 01:16:18 89° W 01:17:05 56° S
Timation 2 Rocket 4.5 01:14:34 30° SSE 01:17:06 45° ESE 01:22:50 10° NE
DNEPR-1 R/B 4.4 01:18:21 10° NW 01:24:40 72° NE 01:29:45 10° SE
ERBS 2.3 01:21:44 10° WNW 01:25:02 76° NNE 01:28:20 10° ESE
SJ 16-02 3.8 01:25:38 10° ESE 01:27:36 13° E 01:29:35 10° ENE
Meteor 2-13 Rocket 4.5 01:24:20 10° N 01:30:28 81° ENE 01:34:11 25° SSE
Cosmos 1538 Rocket 3.9 01:27:32 10° NNW 01:32:45 87° ENE 01:35:51 25° SSE
Cosmos 1025 Rocket 2.9 01:30:38 10° NNW 01:34:54 72° W 01:36:08 45° S
Cosmos 2227 Rocket 3.4 01:33:34 21° SSE 01:36:17 32° ESE 01:41:16 10° NE
Resurs 1-4 Rocket 2.8 01:31:32 10° NNE 01:36:37 44° E 01:39:24 24° SSE
Cosmos 1674 3.2 01:34:33 10° N 01:38:14 52° ENE 01:39:47 30° SE
MOZ.5/SAFIR/RUBIN 5/SL-8 3.7 01:36:59 34° S 01:39:04 83° WSW 01:43:52 10° NNW
SL-19 R/B 4.4 01:34:18 10° NNE 01:40:25 77° ESE 01:43:22 31° S
NOSS 0 Rocket 4.1 01:35:44 10° NW 01:41:46 52° WSW 01:44:39 30° S
Cosmos 1437 2.9 01:40:47 10° NNW 01:43:28 51° WNW 01:43:28 51° WNW
Cosmos 773 Rocket 4.1 01:39:23 10° NNW 01:44:25 53° WSW 01:46:17 35° SSW
ATLAS 3B R/B 3.0 01:40:56 15° WSW 01:46:22 60° NW 01:53:02 10° NE
Cosmos 1536 Rocket 3.5 01:42:39 10° NNW 01:46:59 69° W 01:48:26 40° SSW
Cosmos 2026 Rocket 3.9 01:41:05 10° N 01:47:13 88° E 01:51:08 24° S
USA 215 4.4 01:43:04 10° ENE 01:48:36 28° SE 01:51:29 21° SSE
Cosmos 1627 Rocket 4.4 01:43:37 10° NNW 01:49:48 85° W 01:53:40 25° S
FALCON 9 DEB 3.0 01:49:06 20° W 01:51:27 84° S 01:54:56 10° E
Lacrosse 4 Rocket 2.3 01:49:18 24° WSW 01:51:29 43° NW 01:55:31 10° NNE
Cosmos 2219 Rocket 3.3 01:47:17 10° NW 01:51:49 25° WSW 01:52:54 23° WSW
Cosmos 2344 4.3 01:43:29 10° NW 01:52:38 71° SW 02:05:22 10° SSE
Cosmos 1634 Rocket 4.1 01:50:26 26° S 01:54:13 74° E 02:00:26 10° NNE
SL-4 R/B 1.6 01:58:01 52° S 01:58:01 52° S 02:01:12 10° ESE
Cosmos 1354 Rocket 4.5 01:57:00 26° SW 01:59:50 54° WNW 02:05:06 10° NNE
IRAS Rocket 4.2 01:56:59 26° S 02:00:10 68° WSW 02:05:47 10° NNW
Meteor 1-24 Rocket 4.2 01:58:01 10° N 02:03:31 58° ENE 02:08:48 10° SSE
SL-16 R/B 2.3 01:58:31 10° NNW 02:04:15 77° ENE 02:09:57 10° SE
Meteor 2-5 Rocket 3.8 02:01:34 10° NNW 02:07:17 78° ENE 02:11:59 15° SSE
COSMOS 2428 4.1 02:05:57 10° NW 02:10:06 21° W 02:11:10 20° WSW
ARIANE 5 R/B 4.5 02:08:30 10° NE 02:12:38 23° E 02:16:44 10° SE
NPP 3.8 02:09:33 10° NNE 02:14:58 73° ESE 02:18:23 23° S
CZ-2D R/B 2.2 02:10:29 10° NNE 02:16:01 84° ESE 02:19:24 24° SSW
Cosmos 1680 Rocket 3.7 02:10:47 10° NNW 02:16:03 74° ENE 02:21:16 10° SSE
KORONAS-FOTON 3.8 02:13:38 10° NNW 02:17:23 62° W 02:18:47 35° SSW
SL-16 R/B 2.7 02:13:43 23° S 02:17:43 58° WSW 02:23:54 10° NNW
GEOS 3 Rocket 3.7 02:14:50 10° NE 02:20:17 81° NW 02:23:52 22° SW
Okean 2 Rocket 4.0 02:19:08 25° WSW 02:21:05 37° WNW 02:25:18 10° N
AQUA 4.0 02:16:42 10° NNE 02:21:29 68° ESE 02:24:26 23° S
Cosmos 1607 3.9 02:16:23 10° NW 02:22:50 76° SW 02:29:18 10° SSE
Helios 1B rocket 4.1 02:19:53 10° N 02:23:10 24° WNW 02:25:08 17° W
USA 267 3.2 02:17:11 10° ESE 02:23:45 86° SSW 02:30:21 10° WNW
ADEOS II 2.9 02:19:04 10° NNE 02:24:10 46° E 02:28:23 14° SSE
Meteor 1-29 4.5 02:21:45 10° N 02:24:39 25° WNW 02:25:50 21° W
CENTAUR R/B 4.1 02:18:41 10° WNW 02:25:03 40° N 02:32:26 10° ENE
IRS-1D 4.0 02:23:06 10° NNE 02:28:04 56° E 02:31:54 17° S
Cosmos 1766 3.3 02:26:32 27° S 02:28:36 76° E 02:32:29 10° NNE
Cosmos 1980 4.5 02:24:21 10° NW 02:29:19 32° WSW 02:31:38 23° SSW
Cosmos 2333 Rocket 4.1 02:27:07 10° WNW 02:29:21 12° W 02:30:09 12° WSW
Okean 1-7 Rocket 4.1 02:25:54 10° N 02:30:16 57° ENE 02:34:38 10° SSE
Cosmos 2297 Rocket 2.2 02:27:24 24° SSW 02:30:55 83° ESE 02:36:37 10° NNE
Cosmos 2219 3.2 02:27:45 24° SSW 02:31:14 87° WNW 02:36:54 10° NNE
Cosmos 1777 Rocket 4.1 02:29:15 24° SW 02:32:25 68° WNW 02:37:43 10° NNE
UNK 4.3 02:30:43 26° SSW 02:32:48 40° W 02:37:14 10° NNW
TIMED 4.5 02:30:11 10° NNW 02:34:36 88° WSW 02:38:59 10° SSE
Uosat 12 SS-18 rocket 4.2 02:33:34 25° SSW 02:36:24 74° SE 02:40:50 10° NE
Cosmos 1626 2.0 02:32:43 10° NNW 02:36:28 86° W 02:38:56 20° S
Cosmos 2266 Rocket 4.3 02:30:42 10° N 02:37:08 73° ENE 02:43:25 10° SSE
Cosmos 1655 Rocket 4.0 02:31:42 10° N 02:38:02 89° W 02:44:17 10° S
Cosmos 2237 Rocket 3.1 02:34:30 10° NW 02:39:17 29° WSW 02:41:37 21° SW
Okean 1 Rocket 3.1 02:38:14 25° SSW 02:40:37 63° WNW 02:44:58 10° N
CZ-4C R/B 4.0 02:40:01 26° WSW 02:40:45 28° W 02:43:51 10° NW
Meteor 1-28 Rocket 4.0 02:37:11 10° SSE 02:40:53 53° ENE 02:44:37 10° N
CZ-4B R/B 3.4 02:36:37 10° NNE 02:41:27 78° ESE 02:44:51 19° S
Cosmos 1470 4.0 02:41:43 11° SSE 02:45:13 39° E 02:48:57 10° NNE
Cosmos 923 Rocket 4.1 02:40:52 10° NNW 02:46:06 56° WSW 02:51:05 11° S
SL-08 R/B 3.5 02:45:21 10° SSE 02:50:19 81° ENE 02:55:18 10° NNW
Cosmos 2098 Rocket 3.5 02:47:42 10° N 02:52:15 87° E 02:58:00 10° S
Cosmos 158 Rocket 4.1 02:48:37 10° NNW 02:53:54 61° WSW 02:59:12 10° S
SL-14 R/B 3.5 02:57:07 10° NNW 03:00:58 52° W 03:03:47 17° SSW
ERBS 3.3 02:58:19 10° W 03:01:03 24° SW 03:03:47 10° SSE
Cosmos 1805 3.9 02:59:42 21° SW 03:01:55 41° WNW 03:05:38 10° N
SJ 16-02 1.3 03:02:10 18° SSW 03:05:28 87° ESE 03:09:55 10° NNE
Cosmos 1943 3.7 03:05:24 10° NNW 03:11:01 65° NE 03:16:36 10° SE
Cosmos 1626 Rocket 3.8 03:08:17 10° N 03:12:38 71° ENE 03:16:56 10° SSE
IRS-P3 4.2 03:07:21 10° NNE 03:12:45 84° ESE 03:17:57 11° SSW
Cosmos 1674 4.5 03:11:02 10° NW 03:13:22 16° W 03:14:35 14° WSW
Cosmos 1455 Rocket 3.1 03:11:32 13° S 03:15:29 87° W 03:19:59 10° N
Resurs 1-4 Rocket 3.0 03:11:34 10° N 03:16:23 36° WNW 03:20:28 13° WSW
Cosmos 1758 3.6 03:13:26 10° S 03:17:27 70° E 03:21:29 10° NNE
Cosmos 1892 Rocket 4.1 03:15:17 10° NNW 03:19:29 40° W 03:23:16 12° SSW
Cosmos 2227 Rocket 2.5 03:15:24 15° SW 03:20:06 58° NW 03:25:43 10° NNE
Cosmos 1733 4.0 03:17:52 17° SW 03:20:25 37° WNW 03:24:01 10° N
SeaSat 1 4.4 03:17:01 10° NE 03:21:02 24° ESE 03:25:00 10° SSE
CZ-2C R/B 4.2 03:21:02 10° NNE 03:24:40 35° E 03:28:11 10° SSE
CZ-2D R/B 3.9 03:22:18 10° NNE 03:26:22 57° E 03:30:18 10° S
Landsat 5 4.0 03:22:37 10° SSE 03:26:28 60° ENE 03:30:30 10° N
Cosmos 1461 3.4 03:23:26 13° SSW 03:27:14 58° SE 03:31:46 10° NE
FALCON 9 DEB 3.7 03:25:04 10° W 03:28:17 35° SSW 03:31:29 10° SE
Lacrosse 4 Rocket 3.9 03:28:45 10° WNW 03:31:12 15° NNW 03:33:36 10° NNE
USA 215 3.4 03:25:48 10° ENE 03:32:22 72° SSE 03:38:49 10° SW
Cosmos 724 4.3 03:27:52 10° NW 03:33:49 67° SW 03:39:51 10° SSE
Cosmos 1340 Rocket 2.8 03:29:58 10° SSW 03:33:58 82° WNW 03:37:58 10° NNE
Meteor 2-21 4.4 03:28:15 10° NNW 03:34:19 81° W 03:40:23 10° S
SL-4 R/B 3.0 03:34:26 10° W 03:36:53 18° SW 03:39:19 10° S
ERS-2 2.5 03:34:06 10° SSE 03:37:43 68° ENE 03:41:23 10° NNW
ATLAS 3B R/B 4.1 03:32:16 10° WNW 03:38:17 34° N 03:44:26 10° NE
Cosmos 1953 2.7 03:36:25 10° S 03:40:23 65° E 03:44:26 10° NNE
Cosmos 2082 3.9 03:35:22 12° SW 03:40:39 65° NW 03:46:16 10° NNE
Cosmos 1726 2.2 03:39:36 10° S 03:43:17 76° E 03:46:58 10° NNE
SL-16 R/B 3.3 03:43:25 10° NW 03:47:48 23° WSW 03:52:11 10° SSW
H-2A R/B 1.9 03:48:03 10° S 03:52:09 71° WSW 03:56:16 10° NNW
ARIANE 5 R/B 2.7 03:47:00 10° NNE 03:52:12 67° WNW 03:57:23 10° SSW
Cosmos 1937 Rocket 3.6 03:47:42 10° SSW 03:53:02 86° WNW 03:58:24 10° NNE
Cosmos 1825 Rocket 4.3 03:48:51 10° N 03:53:10 58° ENE 03:57:26 10° SSE
CZ-2D R/B 3.7 03:51:21 10° N 03:55:29 22° NW 03:59:38 10° WSW
IDEFIX/ARIANE 42P 2.6 03:50:23 10° NNE 03:55:37 88° WNW 04:00:50 10° SSW
Cosmos 1898 Rocket 3.7 03:52:20 10° SW 03:57:33 63° WNW 04:02:45 10° NNE
Cosmos 1328 4.2 03:53:37 10° N 03:57:38 71° ENE 04:01:37 10° SSE
CZ-4C R/B 3.0 03:58:17 10° S 04:01:27 53° W 04:04:44 10° NNW
Cosmos 1544 Rocket 4.1 03:57:49 10° SSW 04:02:07 45° WNW 04:06:27 10° N
SL-16 R/B 4.3 04:00:29 10° WSW 04:02:42 12° W 04:04:55 10° WNW
NOSS 2-3 (E) 4.5 03:58:55 10° SSW 04:03:06 49° SE 04:08:08 10° NE
ADEOS II 3.0 03:59:01 10° N 04:03:46 35° WNW 04:08:28 10° SW
CZ-4B R/B 2.6 04:01:24 10° SE 04:04:32 45° ENE 04:07:38 10° N
USA 267 3.7 04:01:20 10° SSE 04:07:19 38° SW 04:13:20 10° WNW
